ONEWEB-0599 (55155 NORAD) Tracking and Keplerian Element Data

This shows tracking and keplerian element data for the satellite.

Feedback or suggestion? Click here.




ElementValue
Catalog55155
NameONEWEB-0599
Epoch Orbit130
Epoch Day13.91667824
Epoch Year2023
RAAN284.1443
Inclination86.5122
Eccentricity0.0011511
Argument of Perigee202.3675
Mean Anonmoly67.1984
Mean Motion14.91256144
Decay Rate-0.00048012
L11 55155U 23004R 23013.91667824 -.00048012 00000+0 -48639-2 0 9990
L22 55155 86.5122 284.1443 0011511 202.3675 67.1984 14.91256144 1303



Live tracking and technical data element details for ONEWEB-0599 (NORAD 55155). ONEWEB-0599 can be tracked NOW for your location showing map with azimuth and elevation plus other details from your city location.







IsCatalogInMostPopularTable: catalog: 55155, numindb: 3
Update: records affected: 1



GetName: 55155 ONEWEB-0599

Hit Count: updated at: Tue, 07 Feb 2023 15:49:05 GMT